Location: *
(50.5492°N, 7.7469°E)
Time: 18:16:57
(UTC+00:00)

CSL-04 Rocket - Pass Details

Date: 21 October 2019
Orbit: 805 x 861 km, 99.0° (Epoch: 17 November)

Event Time Altitude Azimuth Distance (km) Brightness Sun altitude
Rises 17:08:25 0° 145° (SE) 3,419 6.6 -7.5°
Reaches altitude 10° 17:10:51 10° 140° (SE) 2,482 5.8 -7.9°
Maximum altitude 17:16:09 51° 67° (ENE) 1,067 3.9 -8.7°
Drops below altitude 10° 17:21:25 10° 353° (N) 2,467 6.2 -9.5°
Sets 17:23:49 0° 348° (NNW) 3,397 6.9 -9.9°
